Tracking 19562 objects as of 23-Mar-2019
HD Live streaming from Space Station
objects crossing your sky now

GORIZONT 1

Track GORIZONT 1 now!
GORIZONT 1 is classified as:


NORAD ID: 11158
Int'l Code: 1978-118A
Perigee: 20,740.2 km
Apogee: 50,857.0 km
Inclination: 13.4 °
Period: 1,436.3 minutes
Semi major axis: 42169 km
RCS: 2.5118 m2 (large)
Launch date: December 19, 1978
Source: Commonwealth of Independent States (former USSR) (CIS)
Launch site: TYURATAM MISSILE AND SPACE COMPLEX (TTMTR)
aabbcc
Your satellite tracking list
Your tracking list is empty




NASA's NSSDC Master Catalog

Two Line Element Set (TLE):
1 11158U 78118A   19080.95110332 -.00000029 +00000-0 +00000-0 0  9995
2 11158 013.4338 249.9472 3570921 219.1489 108.4681 01.00254570096421
Source of the keplerian elements: AFSPC